Weather History for Smyrna, TN

Change the Weather History Date:

Sunday, February 10, 2013

  Actual Average Record
Temperature  
Mean Temperature 50 °F -  
Max Temperature 59 °F 48 °F 68 °F (2000)
Min Temperature 41 °F 33 °F 10 °F (2011)
Degree Days  
Heating Degree Days 15    
Moisture  
Dew Point 45 °F    
Average Humidity 78    
Maximum Humidity 100    
Minimum Humidity 39    
Precipitation  
Precipitation 0.44 in - - ()
Sea Level Pressure  
Sea Level Pressure 30.03 in    
Wind  
Wind Speed 8 mph (South)    
Max Wind Speed 17 mph    
Max Gust Speed 30 mph    
Visibility 8 miles    
Events Rain    
Averages and records for this station are not official NWS values.
T = Trace of Precipitation, MM = Missing Value Source: NWS Daily Summary

Daily Weather History Graph

Daily Weather History Graph

Search for Another Location

Airport:

Trip Planner

Search our weather history database for the weather conditions in past years. The results will help you decide how hot, cold, wet, or windy it might be!

Date:

Astronomy

Feb. 10, 2013 Rise Set
Actual Time 6:38 AM CST 5:22 PM CST
Civil Twilight 6:11 AM CST 5:49 PM CST
Nautical Twilight 5:41 AM CST 6:19 PM CST
Astronomical Twilight 5:11 AM CST 6:49 PM CST
Moon 6:30 AM CST (2/10) 6:09 PM CST (2/10)
Length of Visible Light 11h 37m
Length of Day
10h 44m
Waxing Crescent, 0% of the Moon is Illuminated
Feb 10
Waxing Crescent
Feb 17
First Quarter
Feb 25
Full
Mar 4
Last Quarter
Mar 11
New

Hourly Weather History & Observations

Time (CST) Temp. Dew Point Humidity Pressure Visibility Wind Dir Wind Speed Gust Speed Precip Events Conditions
12:56 AM 41.9 °F 36.0 °F 79% 30.21 in 10.0 mi Calm Calm - N/A   Clear
1:56 AM 43.9 °F 36.0 °F 74% 30.20 in 10.0 mi Calm Calm - N/A   Clear
2:56 AM 50.9 °F 32.9 °F 50% 30.18 in 10.0 mi South 6.9 mph - N/A   Clear
3:56 AM 50.9 °F 34.0 °F 52% 30.18 in 10.0 mi South 6.9 mph - N/A   Scattered Clouds
4:56 AM 52.0 °F 32.9 °F 48% 30.16 in 10.0 mi South 8.1 mph - N/A   Partly Cloudy
5:56 AM 50.9 °F 32.9 °F 50% 30.16 in 10.0 mi SSE 6.9 mph - N/A   Partly Cloudy
6:56 AM 52.9 °F 32.9 °F 47% 30.14 in 10.0 mi South 11.5 mph - N/A   Mostly Cloudy
7:56 AM 54.9 °F 34.0 °F 45% 30.17 in 10.0 mi South 13.8 mph 18.4 mph N/A   Mostly Cloudy
8:56 AM 56.8 °F 32.9 °F 40% 30.12 in 10.0 mi South 15.0 mph 26.5 mph N/A   Clear
9:56 AM 59.9 °F 34.9 °F 39% 30.09 in 10.0 mi South 15.0 mph 29.9 mph N/A   Clear
10:56 AM 59.0 °F 39.9 °F 49% 30.07 in 10.0 mi South 13.8 mph 28.8 mph N/A   Mostly Cloudy
11:56 AM 54.9 °F 46.9 °F 75% 30.06 in 5.0 mi South 13.8 mph - 0.00 in Rain Light Rain
12:14 PM 51.8 °F 46.4 °F 82% 30.02 in 2.0 mi South 17.3 mph 24.2 mph 0.03 in Rain Light Rain
12:24 PM 51.8 °F 46.4 °F 82% 30.01 in 10.0 mi SSE 15.0 mph 20.7 mph 0.03 in Rain Light Rain
12:56 PM 50.0 °F 46.9 °F 89% 30.04 in 5.0 mi SSE 6.9 mph - 0.07 in Rain Light Rain
1:15 PM 50.0 °F 46.4 °F 87% 29.99 in 2.0 mi SSE 8.1 mph - 0.05 in Rain Rain
1:40 PM 48.2 °F 46.4 °F 93% 30.02 in 1.5 mi SSW 3.5 mph - 0.11 in Rain Heavy Rain
1:48 PM 48.2 °F 46.4 °F 93% 30.02 in 1.2 mi Calm Calm - 0.14 in Rain Heavy Rain
1:56 PM 48.9 °F 46.9 °F 93% 30.04 in 1.8 mi SE 6.9 mph - 0.16 in Rain Rain
2:18 PM 48.2 °F 46.4 °F 93% 30.02 in 2.0 mi SSW 4.6 mph - 0.09 in Rain Heavy Rain
2:56 PM 48.9 °F 47.8 °F 96% 30.02 in 2.0 mi SSE 9.2 mph - 0.18 in Rain Rain
3:03 PM 48.2 °F 46.4 °F 93% 29.98 in 2.0 mi SSE 10.4 mph - 0.01 in Rain Rain
3:21 PM 48.2 °F 48.2 °F 100% 29.94 in 3.0 mi SSE 12.7 mph 19.6 mph 0.03 in Rain Light Rain
3:48 PM 48.2 °F 48.2 °F 100% 29.92 in 10.0 mi SSE 11.5 mph - 0.03 in   Mostly Cloudy
3:56 PM 48.9 °F 47.8 °F 96% 29.94 in 10.0 mi SSE 12.7 mph - 0.03 in   Overcast
4:26 PM 51.8 °F 48.2 °F 88% 29.91 in 10.0 mi South 12.7 mph - N/A   Overcast
4:56 PM 52.0 °F 48.9 °F 89% 29.94 in 10.0 mi South 11.5 mph - N/A   Overcast
5:56 PM 52.9 °F 50.0 °F 90% 29.93 in 10.0 mi South 10.4 mph 23.0 mph N/A   Overcast
6:56 PM 54.9 °F 50.9 °F 86% 29.93 in 10.0 mi South 10.4 mph - N/A   Overcast
7:56 PM 55.9 °F 52.0 °F 87% 29.92 in 10.0 mi South 12.7 mph - N/A   Overcast
8:56 PM 56.8 °F 52.9 °F 87% 29.93 in 10.0 mi SSW 10.4 mph - N/A   Overcast
9:56 PM 57.9 °F 54.9 °F 90% 29.92 in 10.0 mi South 9.2 mph 17.3 mph N/A   Overcast
10:56 PM 59.0 °F 54.9 °F 86% 29.96 in 10.0 mi SSW 10.4 mph - N/A   Overcast
11:36 PM 57.2 °F 55.4 °F 94% 29.93 in 10.0 mi SSW 5.8 mph - N/A   Overcast
11:56 PM 57.9 °F 55.9 °F 93% 29.97 in 10.0 mi SW 5.8 mph - N/A   Overcast